• In Uzbekistan
  • List of Countries
  • For 7 days
  • Water Temperature
  • Satellite Maps
  • Weather Map
  • Weather Widgets
  • user-avatar
    Login

    Hourly Weather San Miguel de Tucumán

    Today, 18 August, Friday

    Time Temperature Precipitation Wind Pressure Humidity
    00:00 +19°C° 0 mm 2 mps 718 mmHg 37%
    01:00 +19°C° 0 mm 2 mps 718 mmHg 37%
    02:00 +19°C° 0 mm 2 mps 717 mmHg 36%
    03:00 +18°C° 0 mm 2 mps 717 mmHg 36%
    04:00 +18°C° 0 mm 2 mps 716 mmHg 36%
    05:00 +18°C° 0 mm 2 mps 716 mmHg 37%
    06:00 +18°C° 0 mm 2 mps 716 mmHg 36%
    07:00 +19°C° 0 mm 2 mps 716 mmHg 35%
    08:00 +20°C° 0 mm 2 mps 715 mmHg 34%
    09:00 +24°C° 0 mm 3 mps 715 mmHg 30%
    10:00 +27°C° 0 mm 3 mps 715 mmHg 25%
    11:00 +30°C° 0 mm 4 mps 715 mmHg 20%
    12:00 +32°C° 0 mm 4 mps 714 mmHg 19%
    13:00 +34°C° 0 mm 4 mps 713 mmHg 17%
    14:00 +35°C° 0 mm 4 mps 712 mmHg 15%
    15:00 +34°C° 0 mm 4 mps 711 mmHg 18%
    16:00 +33°C° 0 mm 4 mps 711 mmHg 21%
    17:00 +32°C° 0 mm 4 mps 710 mmHg 23%
    18:00 +29°C° 0 mm 4 mps 711 mmHg 26%
    19:00 +27°C° 0 mm 4 mps 711 mmHg 29%
    20:00 +25°C° 0 mm 3 mps 711 mmHg 33%
    21:00 +25°C° 0 mm 3 mps 711 mmHg 33%
    22:00 +24°C° 0 mm 3 mps 712 mmHg 34%
    23:00 +23°C° 0 mm 2 mps 712 mmHg 34%

    Tomorrow, 19 August, Saturday

    Time Temperature Precipitation Wind Pressure Humidity
    00:00 +23°C° 0 mm 2 mps 712 mmHg 34%
    01:00 +21°C° 0 mm 2 mps 712 mmHg 33%
    02:00 +21°C° 0 mm 2 mps 712 mmHg 33%
    03:00 +20°C° 0 mm 2 mps 712 mmHg 33%
    04:00 +20°C° 0 mm 2 mps 712 mmHg 33%
    05:00 +20°C° 0 mm 2 mps 713 mmHg 33%
    06:00 +20°C° 0 mm 2 mps 713 mmHg 35%
    07:00 +21°C° 0 mm 2 mps 714 mmHg 36%
    08:00 +23°C° 0 mm 2 mps 715 mmHg 37%
    09:00 +24°C° 0 mm 3 mps 716 mmHg 33%
    10:00 +26°C° 0 mm 4 mps 717 mmHg 30%
    11:00 +28°C° 0 mm 5 mps 717 mmHg 26%
    12:00 +28°C° 0 mm 5 mps 717 mmHg 29%
    13:00 +28°C° 0 mm 5 mps 717 mmHg 32%
    14:00 +28°C° 0 mm 5 mps 716 mmHg 36%
    15:00 +27°C° 0 mm 4 mps 717 mmHg 39%
    16:00 +25°C° 0 mm 4 mps 717 mmHg 43%
    17:00 +23°C° 0 mm 4 mps 718 mmHg 46%
    18:00 +22°C° 0 mm 4 mps 719 mmHg 50%
    19:00 +20°C° 0 mm 3 mps 720 mmHg 54%
    20:00 +19°C° 0 mm 2 mps 722 mmHg 58%
    21:00 +18°C° 0 mm 2 mps 722 mmHg 59%
    22:00 +18°C° 0 mm 1 mps 723 mmHg 61%
    23:00 +16°C° 0 mm 1 mps 724 mmHg 63%

    Day after tomorrow, 20 August, Sunday

    Time Temperature Precipitation Wind Pressure Humidity
    00:00 +16°C° 0 mm 1 mps 724 mmHg 65%
    01:00 +15°C° 0 mm 1 mps 724 mmHg 67%
    02:00 +14°C° 0 mm 1 mps 725 mmHg 69%
    03:00 +13°C° 0 mm 0 mps 725 mmHg 70%
    04:00 +12°C° 0 mm 0 mps 725 mmHg 71%
    05:00 +12°C° 0 mm 0 mps 725 mmHg 73%
    06:00 +14°C° 0 mm 1 mps 726 mmHg 70%
    07:00 +14°C° 0 mm 1 mps 727 mmHg 66%
    08:00 +15°C° 0 mm 1 mps 728 mmHg 63%
    09:00 +16°C° 0 mm 1 mps 729 mmHg 54%
    10:00 +18°C° 0 mm 2 mps 729 mmHg 45%
    11:00 +20°C° 0 mm 2 mps 730 mmHg 36%
    12:00 +21°C° 0 mm 3 mps 729 mmHg 34%
    13:00 +22°C° 0 mm 3 mps 728 mmHg 31%
    14:00 +24°C° 0 mm 3 mps 727 mmHg 29%
    15:00 +22°C° 0 mm 3 mps 727 mmHg 29%
    16:00 +22°C° 0 mm 3 mps 726 mmHg 29%
    17:00 +22°C° 0 mm 3 mps 726 mmHg 29%
    18:00 +20°C° 0 mm 3 mps 726 mmHg 32%
    19:00 +19°C° 0 mm 3 mps 726 mmHg 34%
    20:00 +17°C° 0 mm 2 mps 726 mmHg 36%
    21:00 +16°C° 0 mm 2 mps 726 mmHg 37%
    22:00 +16°C° 0 mm 2 mps 726 mmHg 37%
    23:00 +16°C° 0 mm 3 mps 726 mmHg 37%

    21 August, Monday

    Time Temperature Precipitation Wind Pressure Humidity
    00:00 +14°C° 0 mm 3 mps 726 mmHg 38%
    01:00 +14°C° 0 mm 3 mps 726 mmHg 38%
    02:00 +14°C° 0 mm 3 mps 725 mmHg 38%
    03:00 +13°C° 0 mm 3 mps 725 mmHg 39%
    04:00 +13°C° 0 mm 3 mps 725 mmHg 40%
    05:00 +13°C° 0 mm 3 mps 724 mmHg 41%
    06:00 +13°C° 0 mm 3 mps 725 mmHg 41%
    07:00 +14°C° 0 mm 4 mps 725 mmHg 41%
    08:00 +15°C° 0 mm 4 mps 726 mmHg 41%
    09:00 +18°C° 0 mm 4 mps 726 mmHg 36%
    10:00 +20°C° 0 mm 4 mps 726 mmHg 31%
    11:00 +22°C° 0 mm 5 mps 725 mmHg 27%
    12:00 +23°C° 0 mm 5 mps 724 mmHg 25%
    13:00 +25°C° 0 mm 5 mps 724 mmHg 24%
    14:00 +26°C° 0 mm 5 mps 723 mmHg 22%
    15:00 +26°C° 0 mm 5 mps 722 mmHg 23%
    16:00 +25°C° 0 mm 4 mps 722 mmHg 24%
    17:00 +25°C° 0 mm 4 mps 721 mmHg 25%
    18:00 +22°C° 0 mm 4 mps 721 mmHg 28%
    19:00 +21°C° 0 mm 4 mps 721 mmHg 30%
    20:00 +19°C° 0 mm 4 mps 722 mmHg 32%
    21:00 +19°C° 0 mm 4 mps 721 mmHg 31%
    22:00 +19°C° 0 mm 4 mps 721 mmHg 31%
    23:00 +18°C° 0 mm 4 mps 721 mmHg 31%

    22 August, Tuesday

    Time Temperature Precipitation Wind Pressure Humidity
    00:00 +18°C° 0 mm 4 mps 720 mmHg 31%
    01:00 +18°C° 0 mm 4 mps 719 mmHg 32%
    02:00 +18°C° 0 mm 3 mps 719 mmHg 33%
    03:00 +18°C° 0 mm 3 mps 718 mmHg 33%
    04:00 +18°C° 0 mm 4 mps 717 mmHg 33%
    05:00 +17°C° 0 mm 4 mps 716 mmHg 33%
    06:00 +18°C° 0 mm 4 mps 716 mmHg 31%
    07:00 +19°C° 0 mm 4 mps 716 mmHg 29%
    08:00 +19°C° 0 mm 3 mps 716 mmHg 27%
    09:00 +22°C° 0 mm 4 mps 716 mmHg 23%
    10:00 +26°C° 0 mm 4 mps 716 mmHg 20%
    11:00 +29°C° 0 mm 4 mps 716 mmHg 16%
    12:00 +30°C° 0 mm 4 mps 714 mmHg 15%
    13:00 +33°C° 0 mm 5 mps 713 mmHg 14%
    14:00 +34°C° 0 mm 5 mps 712 mmHg 13%
    15:00 +33°C° 0 mm 5 mps 712 mmHg 14%
    16:00 +32°C° 0 mm 5 mps 711 mmHg 15%
    17:00 +32°C° 0 mm 5 mps 711 mmHg 16%
    18:00 +29°C° 0 mm 5 mps 711 mmHg 18%
    19:00 +27°C° 0 mm 5 mps 711 mmHg 19%
    20:00 +25°C° 0 mm 4 mps 711 mmHg 21%
    21:00 +25°C° 0 mm 4 mps 711 mmHg 21%
    22:00 +25°C° 0 mm 4 mps 711 mmHg 20%
    23:00 +23°C° 0 mm 4 mps 711 mmHg 19%

    23 August, Wednesday

    Time Temperature Precipitation Wind Pressure Humidity
    00:00 +23°C° 0 mm 4 mps 710 mmHg 19%
    01:00 +24°C° 0 mm 3 mps 710 mmHg 19%
    02:00 +24°C° 0 mm 3 mps 709 mmHg 19%
    03:00 +22°C° 0 mm 3 mps 709 mmHg 20%
    04:00 +21°C° 0 mm 3 mps 709 mmHg 21%
    05:00 +21°C° 0 mm 2 mps 709 mmHg 23%
    06:00 +21°C° 0 mm 2 mps 710 mmHg 24%
    07:00 +21°C° 0 mm 2 mps 711 mmHg 26%
    08:00 +21°C° 0 mm 2 mps 712 mmHg 28%
    09:00 +24°C° 0 mm 2 mps 712 mmHg 25%
    10:00 +27°C° 0 mm 3 mps 713 mmHg 23%
    11:00 +29°C° 0 mm 4 mps 714 mmHg 21%
    12:00 +29°C° 0 mm 5 mps 714 mmHg 22%
    13:00 +29°C° 0 mm 5 mps 714 mmHg 23%
    14:00 +30°C° 0 mm 6 mps 714 mmHg 24%
    15:00 +28°C° 0 mm 5 mps 715 mmHg 28%
    16:00 +27°C° 0 mm 4 mps 715 mmHg 32%
    17:00 +26°C° 0 mm 4 mps 716 mmHg 36%
    18:00 +24°C° 0 mm 3 mps 717 mmHg 41%
    19:00 +21°C° 0 mm 2 mps 717 mmHg 46%
    20:00 +19°C° 0 mm 2 mps 718 mmHg 51%
    21:00 +20°C° 0 mm 1 mps 718 mmHg 53%
    22:00 +19°C° 0 mm 1 mps 718 mmHg 54%
    23:00 +18°C° 0 mm 1 mps 718 mmHg 55%
    Show more